Torna al catalogo

STARLINK-34081

AttivoComunicazioniVLEO
NORAD 64044·PAYLOAD·🇺🇸 United States

Lanciato May 16, 2025 da Vandenberg Space Force Base

Loading…

Prossimi Passaggi (prossime 24 ore)

TLE

AggiornatoSource: CelesTrak SupGP

Epoca: Sep 14, 2026, 22:14 UTC

1 64044C 25102Y   26257.92687500 -.00031561  00000+0 -10984-2 0  2575
2 64044  70.0012 355.7045 0003250 271.7984 266.4362 15.29580206    15

Traccia STARLINK-34081 in tempo reale con AllMySat

Download on the App Store